User: anonymous   Login
Location: Godiavel Galaoual
(15.2485°N, 12.6604°W)
Time: 14:17:16
(UTC+00:00)
Language:

EO-88 - Orbit

View from above orbital plane
View from above orbital plane
View from above satellite
View from above satellite

Ground track
Ground track

The orbit data is extracted from the following two-line orbital elements,

1 42017U 17008BX  21214.65432887  .00002139  00000-0  79901-4 0  9998
2 42017  97.3134 281.4280 0004466 316.2876  43.8010 15.28447153248315
Epoch (UTC): 02 August 2021 15:42:14
Eccentricity: 0.0004466
inclination: 97.3134°
perigee height: 477 km
apogee height: 483 km
right ascension of ascending node: 281.4280°
argument of perigee: 316.2876°
revolutions per day: 15.28447153
mean anomaly at epoch: 43.8010°
orbit number at epoch: 24831

The dashed part of the orbit path shows where the satellite is in the earth's shadow,  

DLR